This is the latest recevied weather packets stored in our database for station/object KC8YVF-1. If no packets are shown the sender has not sent any weather packets the latest 10 day(s).
| Time | Temp. | Humidity | Pressure | Rain* | Wind** | Luminosity | Snow |
|---|---|---|---|---|---|---|---|
| 1778244306 | 8.33° C | 74% | 998.3 hPa | 0 mm | - | - | - |
| 1778244006 | 8.33° C | 75% | 998.1 hPa | 0 mm | - | - | - |
| 1778243929 | 8.33° C | 76% | 997.9 hPa | 0 mm | - | - | - |
| 1778243708 | 7.78° C | 76% | 997.9 hPa | 0 mm | - | - | - |
| 1778243406 | 7.78° C | 77% | 998.2 hPa | 0 mm | - | - | - |
| 1778243030 | 7.22° C | 78% | 998.2 hPa | 0 mm | - | - | - |
| 1778242207 | 6.11° C | 81% | 997.9 hPa | 0 mm | - | - | - |
| 1778242129 | 6.11° C | 82% | 997.9 hPa | 0 mm | - | - | - |
| 1778241908 | 5.56° C | 82% | 997.9 hPa | 0 mm | - | - | - |
| 1778241607 | 5° C | 83% | 997.9 hPa | 0 mm | - | - | - |
| 1778241307 | 4.44° C | 83% | 997.9 hPa | 0 mm | - | - | - |
| 1778241228 | 3.89° C | 84% | 997.9 hPa | 0 mm | - | - | - |
| 1778241007 | 3.33° C | 83% | 997.9 hPa | 0 mm | - | - | - |
| 1778240707 | 3.33° C | 83% | 997.9 hPa | 0 mm | - | - | - |
| 1778240406 | 2.22° C | 82% | 997.8 hPa | 0 mm | - | - | - |
| 1778240330 | 2.22° C | 82% | 997.8 hPa | 0 mm | - | - | - |
| 1778240107 | 2.22° C | 81% | 997.6 hPa | 0 mm | - | - | - |
| 1778239507 | 1.11° C | 80% | 997.6 hPa | 0 mm | - | - | - |
| 1778239430 | 1.11° C | 80% | 997.6 hPa | 0 mm | - | - | - |
| 1778239207 | 1.11° C | 80% | 997.6 hPa | 0 mm | - | - | - |
| 1778238907 | 1.11° C | 80% | 997.6 hPa | 0 mm | - | - | - |
| 1778238607 | 1.11° C | 80% | 997.6 hPa | 0 mm | - | - | - |
| 1778238530 | 1.11° C | 80% | 997.6 hPa | 0 mm | - | - | - |
| 1778237629 | 1.11° C | 79% | 997.6 hPa | 0 mm | - | - | - |
| 1778237406 | 1.11° C | 79% | 997.6 hPa | 0 mm | - | - | - |
* Rain latest hour (hover to see other rain measurements)
** Current wind speed in m/s (hover to see current wind gust speed)